Tracking 25612 objects as of 21-May-2022
HD Live streaming from Space Station
objects crossing your sky now

COSMOS 1275 DEB *

Track COSMOS 1275 DEB * now!
10-day predictions


NORAD ID: 18565
Int'l Code: 1981-053LY
Perigee: 974.4 km
Apogee: 1,227.6 km
Inclination: 82.5 °
Period: 107.1 minutes
Semi major axis: 7472 km
RCS: 0.0174 m2 (small)
Launch date: June 4, 1981
Source: Commonwealth of Independent States (former USSR) (CIS)
Launch site: PLESETSK MISSILE AND SPACE COMPLEX (PKMTR)

Note: This is SATELLITE DEBRIS
aabbcc
Your satellite tracking list
Your tracking list is empty




NASA's NSSDC Master Catalog

Two Line Element Set (TLE):
1 18565U 85094U   22140.58128510  .00010457  00000-0  16509-1 0  9999
2 18565  82.4728 185.5339 0169441 136.9924  16.8913 13.44142086706904
Source of the keplerian elements: AFSPC